User: anonymous   Login
Location: Unspecified
(0.0000°N, 0.0000°E)
Time: 09:13:40
(UTC+00:00)
Language:

HO-68 - Orbit

View from above orbital plane
View from above orbital plane
View from above satellite
View from above satellite

Ground track
Ground track

The orbit data is extracted from the following two-line orbital elements,

1 36122U 09072B   17230.96837937 -.00000034 +00000-0 +21969-4 0  9996
2 36122 100.0976 254.4987 0008240 090.5821 269.6238 13.16340641368784
Epoch (UTC): 18 August 2017 23:14:27
Eccentricity: 0.0008240
inclination: 100.0976°
perigee height: 1192 km
apogee height: 1205 km
right ascension of ascending node: 254.4987°
argument of perigee: 90.5821°
revolutions per day: 13.16340641
mean anomaly at epoch: 269.6238°
orbit number at epoch: 36878

The dashed part of the orbit path shows where the satellite is in the earth's shadow,  

DLR